Location: Roswell
(33.3943°N, 104.5230°W)
Time: 12:27:37
(UTC+00:00)

S-56A Canister/Altair - Visible Passes

Search period start: 09 November 2024 00:00
Search period end: 19 November 2024 00:00
Orbit: 635 x 2487 km, 38.9° (Epoch: 08 November)

Date Brightness Start Highest point End Pass type
(mag) Time Alt. Az. Time Alt. Az. Time Alt. Az.
09 Nov 10.6 08:36:45 42° ENE 08:36:45 42° ENE 08:45:16 10° ENE visible
09 Nov 9.9 10:34:03 56° NW 10:37:56 71° N 10:52:36 10° E visible
09 Nov 10.0 12:31:22 13° WNW 12:45:50 90° SSW 12:58:53 10° ESE visible
10 Nov 11.0 08:04:25 28° ENE 08:04:25 28° ENE 08:10:04 10° ENE visible
10 Nov 9.8 10:01:44 69° NNW 10:02:37 70° N 10:17:36 10° E visible
10 Nov 10.0 11:59:02 22° WNW 12:10:40 86° NNE 12:24:19 10° ESE visible
11 Nov 11.4 07:32:05 18° ENE 07:32:05 18° ENE 07:34:48 10° ENE visible
11 Nov 10.0 09:29:24 65° NE 09:29:24 65° NE 09:42:30 10° E visible
11 Nov 10.0 11:26:42 33° WNW 11:35:25 82° NNE 11:49:38 10° ESE visible
12 Nov 10.4 08:57:05 49° ENE 08:57:05 49° ENE 09:07:18 10° ENE visible
12 Nov 9.9 10:54:23 47° WNW 11:00:09 79° NNE 11:14:49 10° ESE visible
12 Nov 10.1 12:52:17 10° WNW 13:07:09 65° SW 13:19:56 10° SE visible
13 Nov 10.8 08:24:47 34° ENE 08:24:47 34° ENE 08:32:01 10° ENE visible
13 Nov 9.8 10:22:06 64° NW 10:24:52 76° NNE 10:39:51 10° E visible
13 Nov 10.0 12:19:25 17° WNW 12:32:07 71° SSW 12:45:35 10° SE visible
14 Nov 11.2 07:52:31 22° ENE 07:52:31 22° ENE 07:56:41 10° ENE visible
14 Nov 9.8 09:49:50 73° NNE 09:49:50 73° NNE 10:04:46 10° E visible
14 Nov 10.0 11:47:09 27° WNW 11:57:01 76° SSW 12:11:05 10° SE visible
15 Nov 11.6 07:20:18 13° ENE 07:20:18 13° ENE 07:21:19 10° ENE visible
15 Nov 10.1 09:17:36 59° ENE 09:17:36 59° ENE 09:29:34 10° E visible
15 Nov 9.9 11:14:56 41° WNW 11:21:52 82° SSW 11:36:26 10° ESE visible
16 Nov 10.6 08:45:26 42° ENE 08:45:26 42° ENE 08:54:16 10° E visible
16 Nov 9.8 10:42:44 59° WNW 10:46:41 87° SSW 11:01:38 10° ESE visible
16 Nov 10.4 12:40:04 12° WNW 12:52:52 45° SW 13:05:31 10° SSE visible
17 Nov 11.1 08:13:16 27° E 08:13:16 27° E 08:18:52 10° E visible
17 Nov 9.7 10:10:36 82° NW 10:11:29 88° NNE 10:26:41 10° ESE visible
17 Nov 10.3 12:07:55 22° W 12:17:56 50° SW 12:31:18 10° SSE visible
18 Nov 11.5 07:41:10 16° E 07:41:10 16° E 07:43:25 10° E visible
18 Nov 9.9 09:38:29 71° E 09:38:29 71° E 09:51:36 10° ESE visible
18 Nov 10.1 11:35:49 34° W 11:42:57 56° SW 11:56:55 10° SE visible
